Back to catalog

CZ-6A DEB

AliveSSO
NORAD 55008·DEBRIS·🇨🇳 China

Launched Nov 11, 2022 from Taiyuan Satellite Launch Center

Loading…

Next Passes (next 24 hours)

TLE

FreshSource: Space-Track

Epoch: Sep 14, 2026, 05:49 UTC

1 55008U 22151UY  26257.24245742  .00000157  00000-0  10938-3 0  9998
2 55008  98.8499 261.4601 0042395  51.6502 308.8467 14.11592382197525

Track CZ-6A DEB in real time with AllMySat

Download on the App Store